EHI
55 54 58 51 36 25 14 6 3 2 2 2 3 3 3 3 3 3 3 4 4 4 4 4 2 1 0 0 0 0 0 0 0 0 0 1 2 4 8 11 11 11 14
56 55 55 50 38 27 17 8 4 3 2 2 3 3 2 2 2 2 2 3 2 3 3 3 2 1 0 0 0 0 0 0 0 0 0 0 1 2 6 10 12 14 16
57 52 50 47 39 29 19 10 6 4 2 2 3 3 1 1 1 1 1 1 1 2 4 3 2 2 1 1 0 0 0 1 1 1 0 0 1 4 7 11 14 16 18
54 49 49 50 42 30 19 12 8 6 5 4 4 4 3 2 2 1 0 0 1 3 4 4 3 3 3 2 1 1 0 1 2 2 1 0 3 10 15 15 15 16 18
50 50 55 56 48 35 22 14 11 8 7 7 6 7 6 6 4 3 3 3 3 4 4 3 3 3 3 3 3 2 1 1 2 2 1 1 8 18 24 22 19 18 19
47 53 58 58 53 40 27 19 15 12 11 11 12 12 10 9 8 7 6 6 6 5 4 3 3 3 3 4 4 3 3 2 2 1 1 2 12 26 31 27 22 19 20
47 52 55 57 55 45 33 24 20 18 17 17 18 17 14 13 13 12 10 10 9 6 4 3 3 4 6 7 7 5 4 3 2 1 1 5 17 33 36 29 22 19 20
46 50 52 53 53 47 38 28 23 22 21 22 22 20 17 16 16 16 14 12 11 9 6 4 4 5 9 11 11 8 4 3 3 1 1 6 20 35 38 30 21 18 19
43 46 48 48 46 42 36 29 25 23 23 23 22 20 16 15 16 16 15 13 13 12 9 6 5 6 9 12 12 9 7 5 3 1 1 7 21 36 39 31 22 18 18
39 42 42 42 39 35 31 28 26 26 26 24 21 18 15 13 12 12 13 15 16 15 13 9 6 6 8 11 12 10 9 8 4 1 2 11 26 37 36 29 23 19 19
38 38 37 38 36 31 28 28 28 27 27 25 22 20 17 13 10 9 14 22 23 20 17 11 7 7 9 10 12 12 12 12 7 2 6 19 33 37 32 26 23 21 20
39 38 36 35 34 30 29 31 29 26 26 25 24 22 17 14 11 10 17 27 28 22 18 14 10 9 9 9 11 13 15 14 10 5 10 26 38 35 29 25 24 23 22
39 37 36 36 36 33 34 35 31 27 26 26 25 23 20 17 14 12 18 25 26 22 18 14 12 10 8 9 11 13 13 12 11 8 14 30 38 33 26 24 24 25 24
38 36 36 41 44 43 43 42 35 29 27 26 27 28 27 23 18 17 19 23 24 21 18 14 12 12 9 9 10 10 9 8 9 8 14 27 35 28 21 20 23 26 27
39 36 37 44 51 52 52 49 40 33 30 29 31 33 32 28 23 21 23 26 25 22 19 15 13 13 11 9 9 9 7 6 7 7 10 19 24 22 18 18 22 25 27
37 37 38 41 47 50 52 50 42 36 34 33 35 37 33 27 25 24 26 29 28 24 23 20 16 14 13 11 8 8 7 7 7 5 6 9 13 16 17 19 20 22 23
33 36 38 38 39 41 43 44 40 37 36 36 38 39 33 25 24 27 28 30 29 26 26 25 20 18 16 13 10 8 7 7 6 3 3 4 7 10 14 16 17 19 21
31 35 37 35 33 34 38 39 37 37 38 37 38 36 30 24 23 26 28 29 29 27 25 24 23 23 20 16 12 9 8 7 4 1 1 2 3 5 8 11 13 16 18
28 31 35 33 30 30 34 36 34 35 37 38 38 35 30 24 22 23 25 25 26 25 23 22 22 23 21 15 11 8 7 5 2 1 1 2 2 3 6 8 9 11 12
23 27 30 30 29 29 32 33 31 31 33 35 37 34 30 25 22 21 22 22 24 24 22 19 20 21 18 13 8 5 4 2 1 0 2 3 3 4 5 5 6 6 6
19 21 24 26 28 29 30 29 28 27 29 31 32 30 27 25 23 21 21 22 23 23 20 19 19 17 14 11 7 3 1 1 0 0 1 2 3 4 4 4 4 4 4
16 17 19 23 27 29 28 27 25 25 26 26 25 25 24 23 22 20 19 20 21 21 19 19 18 14 11 9 6 3 0 0 0 1 1 1 2 4 4 3 3 4 5
12 14 17 22 25 26 24 22 20 20 21 21 21 22 22 21 21 19 17 17 19 20 21 20 17 13 9 7 5 3 1 1 0 1 2 1 1 3 3 3 3 4 5
9 12 17 20 22 21 19 17 16 14 15 17 20 21 20 19 19 17 14 13 15 19 21 20 17 13 9 5 4 3 2 2 1 1 1 2 2 3 3 2 3 3 4
8 11 14 17 19 19 17 16 16 14 13 15 18 19 19 19 17 15 12 11 12 16 19 19 18 14 10 5 3 3 3 2 1 1 1 2 2 3 3 3 3 3 3
8 9 12 15 19 19 17 17 17 16 14 14 16 17 18 18 16 12 11 11 11 14 18 19 18 15 10 6 3 3 2 2 2 1 0 1 2 3 3 3 3 3 3
Wind_Speed
15 16 17 14 13 11 10 9 9 9 8 8 7 7 6 6 6 6 6 6 7 7 6 6 5 4 3 2 0 1 2 2 2 2 2 2 3 3 3 2 0 2 7
17 16 16 14 12 12 10 9 8 8 8 7 7 6 6 6 6 6 6 6 5 5 5 5 4 4 3 2 2 1 1 1 1 2 2 2 3 3 3 3 2 3 7
18 16 15 14 12 12 11 10 9 8 8 7 7 6 6 6 6 6 6 5 5 5 5 4 4 4 3 3 3 3 3 3 3 4 5 5 5 7 7 6 5 5 5
17 15 13 14 13 12 11 10 9 8 8 7 7 6 6 5 5 5 5 5 5 5 5 5 5 4 4 4 4 4 4 5 6 6 6 6 4 7 8 7 6 6 6
16 15 14 15 12 11 11 10 9 8 7 6 6 6 5 5 5 5 5 5 5 5 5 5 5 5 5 5 5 5 5 6 7 9 7 4 3 9 10 9 8 6 6
15 15 15 14 13 11 10 9 9 8 7 6 6 5 5 5 5 5 5 5 5 5 5 5 5 5 5 5 5 6 7 7 8 8 7 4 3 9 11 10 9 8 6
13 15 14 14 12 11 10 9 8 8 7 6 5 5 5 4 4 5 5 5 5 5 6 6 6 6 6 6 6 7 8 9 8 8 6 4 4 10 11 10 9 8 7
12 13 13 14 13 11 10 9 8 7 7 6 5 5 5 5 5 5 5 5 6 6 6 6 6 6 7 7 7 8 9 10 10 9 6 3 6 11 11 10 9 8 8
11 12 10 10 10 10 10 9 8 8 7 7 6 6 5 5 6 6 6 7 7 6 6 7 7 8 8 8 9 10 11 11 9 7 8 2 6 9 10 10 9 9 9
8 11 10 9 9 8 8 10 9 8 8 7 7 7 6 7 7 7 7 7 7 7 7 8 8 9 10 10 11 12 12 11 9 9 5 3 7 9 9 9 9 10 9
6 7 7 8 8 7 8 9 10 9 7 7 6 6 6 4 5 6 7 7 8 8 9 9 9 10 11 12 13 13 12 7 8 6 4 5 8 9 9 9 9 10 10
6 5 5 6 6 6 5 6 5 5 5 4 3 3 4 4 4 5 6 9 9 9 9 10 11 11 10 6 9 12 6 8 7 5 4 8 9 9 10 9 9 10 10
5 4 4 4 3 3 2 3 2 2 3 3 3 3 3 2 3 3 2 3 5 7 6 7 8 6 5 4 4 5 6 5 4 4 4 8 8 10 10 10 10 10 11
5 5 3 3 3 2 2 2 2 1 2 2 3 2 2 2 2 1 1 1 2 2 3 4 3 4 4 4 5 5 5 4 3 2 2 7 8 9 10 11 11 11 10
5 4 3 3 3 2 1 0 1 1 2 3 2 2 2 1 1 2 1 2 3 2 3 3 3 4 4 4 5 5 4 4 5 3 2 7 9 10 11 12 12 12 11
5 3 2 2 3 2 1 0 1 1 1 1 1 2 2 1 1 2 2 2 2 2 2 3 3 3 3 3 4 4 4 5 4 4 3 5 10 12 13 13 12 12 12
4 3 1 2 2 1 1 1 1 1 0 0 0 1 1 1 1 2 2 1 1 2 2 2 3 2 2 3 3 4 4 4 4 4 4 4 5 10 13 12 12 12 12
4 4 2 2 2 1 0 1 1 1 0 0 0 0 0 1 2 2 1 1 2 2 2 2 1 1 2 2 3 3 3 3 4 4 4 4 4 4 7 12 12 12 12
4 4 3 3 3 2 2 1 1 1 1 0 0 0 0 1 2 1 2 2 2 2 1 2 1 2 3 3 3 3 3 3 3 5 4 4 3 3 3 7 11 13 14
4 3 2 2 3 2 2 2 2 1 1 1 0 0 1 1 2 2 2 2 2 2 1 1 1 2 2 2 5 4 3 3 3 3 4 3 3 4 4 4 5 8 12
3 2 2 2 2 1 1 2 2 2 2 1 1 0 1 1 2 2 2 2 2 2 1 2 2 3 3 2 2 3 4 4 3 3 3 3 3 3 3 4 3 3 4
3 2 2 2 2 2 1 2 2 2 2 2 1 1 1 1 2 2 2 1 1 2 2 2 2 2 2 2 1 2 2 2 2 4 3 3 3 2 3 4 3 3 3
3 2 3 2 1 2 2 2 2 2 2 2 2 1 1 2 2 2 1 1 2 2 1 2 2 3 2 3 1 1 2 1 2 2 2 2 2 2 3 3 4 3 4
3 3 3 2 1 1 2 2 3 3 3 3 2 1 1 2 2 1 1 2 2 2 2 3 2 3 3 3 2 2 2 1 2 2 2 2 3 4 3 3 3 4 4
4 4 3 2 1 1 1 2 3 3 3 3 3 2 2 2 2 1 1 2 2 2 2 3 2 3 2 2 2 2 3 2 3 3 4 3 3 3 2 3 2 2 3
4 4 3 2 2 2 2 2 3 3 4 4 3 3 2 1 1 1 1 1 2 2 2 2 2 3 2 3 3 3 2 2 3 3 3 4 4 3 3 3 3 3 3
Wind_Direction
116 126 128 126 126 126 125 125 127 129 130 130 129 126 124 123 124 123 123 124 128 133 139 143 148 155 161 168 152 38 40 33 28 34 41 54 75 89 89 78 77 126 127
118 125 128 127 128 129 130 131 131 133 133 133 136 136 136 137 139 143 145 146 149 153 156 161 165 172 178 190 207 230 255 264 278 280 271 248 211 183 166 148 109 96 120
118 126 130 129 131 132 133 134 134 135 135 137 142 147 148 150 153 157 159 163 168 172 176 180 186 191 194 201 213 224 234 241 246 253 253 246 211 193 181 168 147 133 131
121 129 130 133 134 136 137 137 137 139 140 142 144 148 155 158 164 168 171 177 181 185 191 195 202 208 213 217 223 230 238 247 252 258 249 242 217 180 178 171 160 154 152
121 126 129 135 135 137 139 141 142 143 146 148 151 152 158 168 174 179 184 189 193 197 202 207 213 220 224 228 234 241 245 252 258 260 261 250 200 170 175 169 169 168 167
122 124 131 137 137 139 142 145 147 149 151 152 156 158 163 174 183 189 194 200 204 209 214 216 221 227 230 233 240 248 253 256 262 259 253 233 198 168 173 172 174 175 179
119 123 133 138 139 142 145 148 151 154 154 156 161 168 178 186 192 199 203 210 213 216 221 224 228 232 233 239 246 250 255 259 259 266 265 218 186 174 176 175 175 180 187
116 121 131 141 143 147 151 151 153 155 159 163 168 178 188 194 201 206 211 219 223 225 227 232 236 239 238 242 248 252 256 262 262 264 264 227 174 176 173 173 176 182 190
114 121 131 141 145 152 154 153 157 163 168 172 178 187 196 207 212 212 213 222 226 230 232 237 241 248 249 245 245 248 252 256 267 272 272 241 174 175 175 177 181 185 191
120 124 138 144 148 157 156 159 172 176 178 181 190 199 209 218 220 220 218 221 227 232 235 238 239 244 249 248 247 247 249 253 251 256 255 226 186 178 182 183 185 192 194
108 120 133 141 152 165 166 162 178 182 179 185 198 206 211 219 223 216 219 210 220 231 236 238 240 243 249 248 246 249 250 243 247 245 234 194 184 186 192 195 195 198 200
106 117 127 137 154 167 166 156 176 179 169 188 192 195 215 225 235 230 203 210 219 230 239 240 243 245 245 245 241 241 241 240 244 245 225 188 188 192 195 202 204 207 209
100 96 105 114 132 152 133 144 172 173 160 187 202 203 223 238 245 237 206 210 223 230 236 240 237 236 237 241 243 228 235 240 238 244 218 187 188 199 202 207 210 216 219
79 75 65 89 99 101 105 144 167 171 159 192 201 207 217 231 255 247 232 219 231 232 237 238 233 237 239 244 251 251 242 238 242 244 215 191 194 208 216 219 218 218 219
59 55 49 55 82 76 78 197 160 199 186 192 182 185 233 224 256 261 248 222 237 232 230 245 246 250 248 249 256 259 251 250 252 239 219 205 201 208 218 224 223 220 218
67 53 26 74 83 73 65 19 238 233 209 192 168 176 218 239 242 259 254 242 255 259 249 246 255 255 251 255 263 275 263 252 248 243 230 214 209 208 214 219 220 217 218
72 62 343 113 93 99 101 270 259 282 114 264 215 141 186 261 270 261 266 267 283 275 267 261 264 256 258 262 261 268 270 263 261 255 245 233 216 215 216 217 217 217 218
63 59 28 32 50 50 16 282 299 314 340 35 79 77 119 280 293 292 287 293 290 284 278 267 281 297 283 280 274 270 267 264 266 257 248 239 231 227 217 217 218 219 220
70 61 41 48 32 14 341 308 304 304 316 314 83 66 267 278 290 297 288 286 288 295 291 299 319 286 288 287 275 259 257 251 253 257 252 250 242 232 223 217 220 223 224
75 68 51 69 53 359 348 323 312 320 315 316 297 355 307 268 279 280 268 288 291 280 280 296 299 277 270 274 288 290 271 248 236 244 250 251 234 233 235 227 214 227 229
71 74 67 60 63 4 359 321 311 303 303 296 264 218 291 286 287 276 294 282 282 281 292 297 296 296 286 281 292 296 275 251 235 236 232 234 234 232 228 229 213 206 219
56 59 71 57 39 2 342 297 285 297 286 273 287 252 249 257 271 271 279 291 293 291 294 286 282 278 284 296 290 302 292 273 286 258 234 230 230 231 235 240 233 213 211
39 44 38 48 35 3 332 321 327 304 288 292 291 255 257 257 255 274 274 285 291 280 283 279 274 276 285 287 261 248 274 288 310 275 273 269 283 264 245 238 224 218 220
29 33 45 37 29 353 325 331 314 306 306 310 310 301 293 267 259 248 277 283 278 285 283 284 292 276 271 283 281 254 260 276 274 292 288 277 267 260 249 252 240 216 214
25 25 32 31 25 347 310 305 298 311 308 311 315 313 285 272 251 222 212 252 270 274 278 284 291 281 270 275 278 277 276 272 250 253 282 286 274 260 254 247 250 225 211
17 11 15 15 11 351 318 311 305 311 305 303 304 303 296 283 273 291 262 271 278 282 281 280 277 280 281 276 278 279 272 267 271 263 271 276 277 270 257 247 243 234 223